This is the latest recevied weather packets stored in our database for station/object BM1CKC-10. If no packets are shown the sender has not sent any weather packets the latest 1 day(s).
| Time | Temp. | Humidity | Pressure | Rain* | Wind** | Luminosity | Snow |
|---|---|---|---|---|---|---|---|
| 1778022598 | 27.78° C | 60% | 1007.6 hPa | - | - | - | - |
| 1778021398 | 27.22° C | 61% | 1007.5 hPa | - | - | - | - |
| 1778020198 | 27.78° C | 60% | 1007.3 hPa | - | - | - | - |
| 1778018999 | 26.67° C | 61% | 1007 hPa | - | - | - | - |
| 1778017799 | 27.22° C | 60% | 1006.6 hPa | - | - | - | - |
| 1778016599 | 27.22° C | 61% | 1006.1 hPa | - | - | - | - |
| 1778015399 | 27.22° C | 60% | 1006.2 hPa | - | - | - | - |
| 1778014199 | 27.22° C | 61% | 1005.8 hPa | - | - | - | - |
| 1778012998 | 27.22° C | 61% | 1005.7 hPa | - | - | - | - |
| 1778011808 | 27.22° C | 61% | 1005.9 hPa | - | - | - | - |
| 1778010598 | 26.67° C | 61% | 1005.6 hPa | - | - | - | - |
| 1778009399 | 27.22° C | 60% | 1005.9 hPa | - | - | - | - |
| 1778008199 | 26.67° C | 62% | 1005.6 hPa | - | - | - | - |
| 1778006999 | 26.67° C | 61% | 1005.9 hPa | - | - | - | - |
| 1778005799 | 26.67° C | 61% | 1005.6 hPa | - | - | - | - |
| 1778004599 | 27.22° C | 61% | 1006 hPa | - | - | - | - |
| 1778003398 | 26.67° C | 62% | 1006 hPa | - | - | - | - |
| 1778002198 | 26.67° C | 62% | 1006.1 hPa | - | - | - | - |
| 1778000998 | 27.22° C | 61% | 1006.4 hPa | - | - | - | - |
| 1777999798 | 27.22° C | 61% | 1006.6 hPa | - | - | - | - |
| 1777998598 | 27.22° C | 60% | 1006.8 hPa | - | - | - | - |
| 1777997398 | 27.22° C | 61% | 1007.2 hPa | - | - | - | - |
| 1777996198 | 26.67° C | 61% | 1007.4 hPa | - | - | - | - |
| 1777994998 | 26.67° C | 61% | 1007.4 hPa | - | - | - | - |
| 1777993798 | 26.67° C | 61% | 1007.7 hPa | - | - | - | - |
* Rain since midnight (hover to see other rain measurements)
** Current wind speed in m/s (hover to see current wind gust speed)